Regional Weather Roundup
Issued by NWS Portland, ME

Current Version | Previous Version | Text Only | Print | Product List | Glossary Off
Versions: 1 2 3 4 5 6 7 8 9 10 11 12 13 14 15 16 17 18 19 20 21 22 23 24 25 26 27 28 29 30 31 32 33 34 35 36 37 38 39 40 41 42 43 44 45 46 47 48 49 50
000 ASUS41 KGYX 200905 RWRGYX WEATHER ROUNDUP FOR MAINE AND NEW HAMPSHIRE NATIONAL WEATHER SERVICE GRAY ME 400 AM EST MON NOV 20 2017 MEZ002-005-006-010-012-015-018-020-021-024-026-027-029-201000- MAINE CITY SKY/WX TMP DP RH WIND PRES REMARKS PORTLAND PTCLDY 32 17 54 W12 29.65R SANFORD N/A 32 21 64 W6 29.68R BAR HARBOR CLEAR 31 22 69 W6 29.57R WISCASSET PTCLDY 29 24 82 CALM 29.64R ROCKLAND CLEAR 30 21 69 W9 29.59R FRYEBURG PTCLDY 31 18 58 W9G18 29.64R LEWISTONAUBURN PTCLDY 30 21 69 NW6 29.63R AUGUSTA PTCLDY 30 19 63 W6 29.60R WATERVILLE PTCLDY 31 20 63 W7 29.54R BANGOR PTCLDY 30 20 66 W6 29.55R GREENVILLE NOT AVBL MILLINOCKET CLOUDY 29 19 66 W9G22 29.49R HOULTON CLOUDY 28 19 69 W15G24 29.43R WCI 16 PRESQUE ISLE CLOUDY 27 18 69 W15G25 29.42R WCI 15 FRENCHVILLE CLOUDY 24 17 74 W16G26 29.36R WCI 11 CARIBOU CLOUDY 28 18 66 W15G23 29.39R WCI 16 $$ NHZ002-005-008-009-011-012-014-201000- NEW HAMPSHIRE CITY SKY/WX TMP DP RH WIND PRES REMARKS PORTSMOUTH CLEAR 32 21 63 W7 29.68R ROCHESTER CLEAR 32 21 64 VRB5 29.67R NASHUA PTCLDY 32 21 64 W3 29.72R MANCHESTER CLEAR 33 21 61 SW5 29.70R CONCORD CLEAR 31 20 63 W7 29.69R LACONIA MIX PCPN 31 21 66 VRB5G16 29.67R PLYMOUTH CLOUDY 31 20 64 W7 29.67R BERLIN FLURRIES 25 19 78 W8 29.60R WHITEFIELD CLOUDY 27 19 72 W13G20 29.64R WCI 16 JAFFREY MOCLDY 31 24 75 W8 29.69R KEENE FLURRIES 33 21 61 W5G17 29.73R LEBANON CLOUDY 33 19 56 W7 29.69R MT WASHINGTON NOT AVBL $$ VTZ005-007-008-201000- VERMONT CITY SKY/WX TMP DP RH WIND PRES REMARKS MONTPELIER CLOUDY 25 21 85 NW8 29.70R BURLINGTON CLOUDY 30 18 60 NW9 29.73R $$ MAZ007-012-024-CTZ003-RIZ002-NYZ038-NYZ072-201000- SOUTHERN NEW ENGLAND AND NY CITY SKY/WX TMP DP RH WIND PRES REMARKS BOSTON PTCLDY 37 23 56 W14G24 29.73R WORCESTER PTCLDY 31 20 63 W17G23 29.71R WCI 19 NANTUCKET CLOUDY 41 27 57 NW13G25 29.75R PROVIDENCE CLOUDY 38 25 59 W15G23 29.78R HARTFORD PTCLDY 35 18 49 W15G28 29.81R ALBANY PTCLDY 31 20 63 W14G20 29.84R NEW YORK CITY MOCLDY 40 25 55 W15G24 29.90R $$ ANZ081-ANZ082-ANZ150-NHZ014-MEZ023>029-201000- COASTAL MARINE OBSERVATIONS STATION/POSITION TIME TEMP WIND PRES WAVE AIR SEA DIR/SP/G HT/PER (UTC) (F) (DEG/KT/KT) (MB) (FT/S) MOUNT DESERT ROC 0900 36 280/ 21/ 25 1001.6R MATINICUS ROCK 0800 36 290/ 23/ 29 1000.8R ISLE OF SHOALS 0800 36 270/ 20/ 23 1004.4R JEFFREYS LEDGE 0836 52 N/A 6/ 5 CASHES LEDGE BUO 0750 40 51 1001.9 8/ 7 GEORGES BANK BUO 0750 47 53 1003.8 16/12 $$ .............KEY.............. WCI - WIND CHILL TC - TEMPERATURE IN CELSIUS VSB - VISIBILITY IN MILES HX - HEAT INDEX FAIR- INDICATES FEW OR NO CLOUDS BELOW 12,000 FT, WITH NO SIGNIFICANT WEATHER AND/OR OBSTRUCTIONS TO VISIBILITY.

USA.gov is the U.S. government's official web portal to all federal, state and local government web resources and services.